Home > Weather > Breckenridge > Past weeks

Flag for USA Past Weather in Breckenridge, Colorado, USA — Yesterday and Last 2 Weeks

Now
54 °F

Clear.


Feels Like: 50 °F
Forecast: 42 / 78 °F
Wind: 12 mph from South

Location: Copper Mountain - Red Cliff Pass

Current Time: Jun 27, 2016 at 7:10:59 AM

Latest Report: Jun 27, 2016 at 6:35 AM


Visibility: 10 mi

Pressure: 30.80 "Hg (21.70 "Hg at 2921m altitude)

Humidity: 16%

Dew Point: 9 °F

Location of BreckenridgeLocation

Past Weather in Breckenridge — Graph

°F

Breckenridge Temperature Yesterday

Maximum temperature yesterday: 64 °F (at 1:35 PM)
Minimum temperature yesterday: 48 °F (at 3:35 AM)
Average temperature yesterday: 58 °F

High & Low Weather Summary for the Past Weeks

 TemperatureHumidityPressure
High73 °F (Jun 14, 4:07 PM)81% (Jun 22, 6:55 PM)30.80 "Hg (Jun 22, 6:55 PM)
Low45 °F (Jun 22, 6:55 PM)6% (Jun 26, 4:35 PM)29.91 "Hg (Jun 14, 4:07 PM)
Average57 °F38%30.67 "Hg
* Reported Jun 14 4:07 PM — Jun 27 5:55 AM, Breckenridge, Weather by CustomWeather, © 2016

Note: Actual official high and low records may vary slightly from our data, if they occured in-between our weather recording intervals... More about our weather records

Advertising

Breckenridge Weather History for the Previous 24 Hours

Scroll right to see more
 ConditionsComfort  
Time TempWeatherWind HumidityBarometerVisibility
5:55 AM
Mon, Jun 27
54 °FClear.8 mph19%30.79 "Hg10 mi
5:35 AM54 °FClear.7 mph19%30.79 "Hg10 mi
5:15 AM54 °FClear.8 mph21%30.79 "Hg10 mi
4:55 AM54 °FClear.9 mph21%30.79 "Hg10 mi
4:35 AM54 °FClear.8 mph21%30.79 "Hg10 mi
4:15 AM54 °FClear.5 mph21%30.79 "Hg10 mi
3:55 AM54 °FClear.3 mph21%30.78 "Hg10 mi
3:35 AM54 °FClear.6 mph22%30.78 "Hg10 mi
3:15 AM54 °FClear.7 mph19%30.78 "Hg10 mi
2:55 AM54 °FClear.6 mph21%30.78 "Hg10 mi
2:35 AM54 °FClear.6 mph18%30.78 "Hg10 mi
2:15 AM54 °FClear.8 mph19%30.78 "Hg10 mi
1:55 AM54 °FClear.7 mph19%30.78 "Hg10 mi
1:35 AM54 °FClear.5 mph19%30.78 "Hg10 mi
1:15 AM54 °FClear.No wind19%30.79 "Hg10 mi
12:55 AM54 °FClear.3 mph21%30.79 "Hg10 mi
12:35 AM54 °FClear.5 mph21%30.80 "Hg10 mi
12:15 AM54 °FClear.3 mph21%30.80 "Hg10 mi
11:55 PM
Sun, Jun 26
54 °FClear.No wind21%30.80 "Hg10 mi
11:35 PM54 °FClear.3 mph21%30.80 "Hg10 mi
11:15 PM54 °FClear.3 mph21%30.80 "Hg10 mi
10:55 PM54 °FClear.No wind19%30.80 "Hg10 mi
10:35 PM54 °FClear.No wind21%30.80 "Hg10 mi
10:15 PM55 °FClear.No wind18%30.80 "Hg10 mi
9:55 PM55 °FClear.No wind19%30.79 "Hg10 mi
9:35 PM55 °FClear.6 mph18%30.78 "Hg10 mi
9:15 PM55 °FSunny.5 mph18%30.78 "Hg10 mi
8:55 PM59 °FSunny.3 mph17%30.77 "Hg10 mi
8:35 PM59 °FSunny.3 mph17%30.77 "Hg10 mi
8:15 PM61 °FSunny.8 mph15%30.76 "Hg10 mi
7:55 PM61 °FSunny.13 mph15%30.76 "Hg10 mi
7:35 PM64 °FSunny.12 mph13%30.76 "Hg10 mi
7:15 PM64 °FSunny.14 mph12%30.75 "Hg10 mi
6:55 PM64 °FSunny.17 mph12%30.75 "Hg10 mi
6:35 PM64 °FSunny.25 mph12%30.73 "Hg10 mi
6:15 PM64 °FSunny.16 mph12%30.74 "Hg10 mi
5:55 PM64 °FSunny.17 mph11%30.74 "Hg10 mi
5:35 PM64 °FSunny.8 mph9%30.75 "Hg10 mi
5:15 PM64 °FSunny.16 mph7%30.74 "Hg10 mi
4:55 PM64 °FSunny.12 mph10%30.75 "Hg10 mi
4:35 PM64 °FSunny.17 mph6%30.75 "Hg10 mi
4:15 PM64 °FSunny.21 mph11%30.74 "Hg10 mi
3:55 PM64 °FSunny.26 mph12%30.73 "Hg10 mi
3:35 PM64 °FSunny.21 mph12%30.74 "Hg10 mi
3:15 PM64 °FSunny.14 mph13%30.75 "Hg10 mi
2:55 PM64 °FScattered clouds.17 mph11%30.75 "Hg10 mi
2:35 PM64 °FSunny.13 mph13%30.75 "Hg10 mi
2:15 PM64 °FSunny.24 mph16%30.73 "Hg10 mi
1:55 PM64 °FSunny.28 mph16%30.73 "Hg10 mi
1:35 PM64 °FScattered clouds.16 mph18%30.74 "Hg10 mi
1:15 PM61 °FScattered clouds.15 mph19%30.74 "Hg10 mi
12:55 PM61 °FScattered clouds.17 mph17%30.74 "Hg10 mi
12:35 PM61 °FSunny.15 mph16%30.74 "Hg10 mi
12:15 PM61 °FSunny.23 mph15%30.73 "Hg10 mi
11:55 AM63 °FSunny.16 mph15%30.74 "Hg10 mi
11:35 AM61 °FSunny.12 mph16%30.74 "Hg10 mi
10:55 AM61 °FSunny.21 mph16%30.73 "Hg10 mi
10:35 AM61 °FSunny.12 mph17%30.73 "Hg10 mi
9:55 AM59 °FSunny.14 mph20%30.73 "Hg10 mi
9:35 AM59 °FSunny.14 mph17%30.73 "Hg10 mi
9:15 AM59 °FSunny.15 mph20%30.73 "Hg10 mi
8:55 AM59 °FSunny.16 mph21%30.72 "Hg10 mi
8:35 AM59 °FSunny.6 mph25%30.72 "Hg10 mi
8:15 AM55 °FSunny.8 mph24%30.71 "Hg10 mi
7:55 AM55 °FSunny.10 mph24%30.71 "Hg10 mi
7:35 AM54 °FSunny.6 mph26%30.71 "Hg10 mi
7:15 AM54 °FSunny.10 mph30%30.70 "Hg10 mi
Weather by CustomWeather, © 2016

See weather overviewHow to use our weather pages